Hourly Data Report for July 10, 2021

BORDEN AWOS
ONTARIO
Current Station Operator: DND

44°16'20.000" N
79°54'42.000" W
222.50 m
611B002
71534
YBN

Download Data

Hourly Data (July 2021)
Hourly Data Report for July 10, 2021
TIME
LST
Temp Definition
°C
Dew Point Definition
°C
Rel Hum Definition
%
Precip. Amount Definition
mm

Wind Dir Definition
10's deg

Wind Spd Definition
km/h
Visibility Definition
km
Stn Press Definition
kPa
Hmdx Definition


Wind Chill Definition


Weather Definition


00:00 10.3 10.3 100     0 0.8 99.16     LegendNANA
01:00
02:00 8.2 8.2 100     0 1.0 99.15     LegendNANA
03:00 7.5 7.5 100   21 6 0.5 99.14     LegendNANA
04:00
05:00
06:00
07:00 13.9 13.1 95     0 14.5 99.16     LegendNANA
08:00 17.6 13.6 77   32 4 14.5 99.30     LegendNANA
09:00 19.9 12.8 64   33 7 14.5 99.31     LegendNANA
10:00 22.0 13.6 59   3 11 14.5 99.30 25   LegendNANA
11:00 24.1 10.6 43   9 13 14.5 99.26 26   LegendNANA
12:00 22.8 11.2 48   27 11 14.5 99.28 25   LegendNANA
13:00 24.4 11.4 44   34 6 14.5 99.23 26   LegendNANA
14:00 23.7 10.7 44   13 9 14.5 99.17 25   LegendNANA
15:00 24.7 10.1 40     0 14.5 99.10 26   LegendNANA
16:00 25.5 10.1 38   13 17 14.5 99.06 27   LegendNANA
17:00 25.0 9.3 37   20 6 14.5 99.06 26   LegendNANA
18:00 24.7 9.2 37   11 7 14.5 99.04 26   LegendNANA
19:00 23.3 11.1 46   2 4 14.5 99.03 25   LegendNANA
20:00 17.3 14.1 82   13 4 14.5 99.07     LegendNANA
21:00 16.9 13.2 79   19 6 14.5 99.13     LegendNANA
22:00 14.4 13.4 94     0 14.5 99.16     LegendNANA
23:00 13.1 12.5 96     0 14.5 99.19     LegendNANA

Notes on Data Quality.

Legend

  • E = Estimated
  • M = Missing
  • NA = Not Available*
  • [empty] = Indicates an unobserved value
Date modified: